Flag Weather past 2 weeks in Portsmouth, Virginia, U.S.A.

Now
42 °F

Overcast.


Feels Like: 39 °F
Forecast: 36 / 44 °F
Wind: 5 mph from South

Location: Norfolk Naval Air Station

Current Time: Nov 27, 2014 at 8:24:25 AM

Latest Report: Nov 27, 2014 at 7:59 AM


Visibility: 10 mi

Pressure: 30.07 "Hg

Humidity: 82%

Dew point: 37 °F

Location of PortsmouthLocation

Historic Weather in Portsmouth — Graph

°F

Portsmouth temperature yesterday

Maximum temperature yesterday: 54 °F (at 12:59 AM)
Minimum temperature yesterday: 42 °F (at 5:59 PM)
Average temperature yesterday: 47 °F

Past Weeks' High & Low Weather Summary

 TemperatureHumidityPressure
High77 °F (Nov 24, 12:59 PM)93% (Nov 12, 6:59 AM)30.58 "Hg (Nov 12, 6:59 AM)
Low29 °F (Nov 22, 4:59 AM)24% (Nov 19, 2:59 PM)29.56 "Hg (Nov 17, 5:59 PM)
Average49 °F60%30.13 "Hg
* Reported Nov 12 6:59 AM — Nov 27 6:59 AM, Portsmouth, Weather by CustomWeather, © 2014

Note: Actual official high and low records may vary slightly from our data, if they occured in-between our weather recording intervals... More about our weather records

Advertising

Portsmouth weather history for previous 24 hours

 ConditionsComfort  
Time TempWeatherWind HumidityBarometerVisibility
6:59 AM
Nov 27
42 °FMostly cloudy.5 mph82%30.06 "Hg10 mi
5:59 AM42 °FOvercast.6 mph79%30.06 "Hg10 mi
4:59 AM41 °FOvercast.7 mph82%30.07 "Hg10 mi
3:59 AM41 °FMostly cloudy.5 mph82%30.06 "Hg10 mi
2:59 AM39 °FClear.5 mph86%30.06 "Hg10 mi
1:59 AM42 °FPassing clouds.3 mph79%30.06 "Hg10 mi
12:59 AM43 °FPartly cloudy.7 mph79%30.06 "Hg10 mi
11:59 PM
Nov 26
43 °FPassing clouds.9 mph76%30.05 "Hg10 mi
10:59 PM43 °FOvercast.10 mph79%30.06 "Hg10 mi
9:59 PM43 °FOvercast.14 mph76%30.04 "Hg10 mi
8:59 PM43 °FOvercast.10 mph79%30.00 "Hg10 mi
7:59 PM43 °FOvercast.10 mph79%29.97 "Hg10 mi
6:59 PM43 °FOvercast.15 mph79%29.95 "Hg10 mi
5:59 PM42 °FOvercast.18 mph79%29.92 "Hg10 mi
4:59 PM43 °FMostly cloudy.22 mph79%29.90 "Hg7 mi
3:59 PM46 °FLight rain. Fog.22 mph86%29.87 "Hg2 mi
2:59 PM47 °FLight rain. Fog.18 mph83%29.80 "Hg6 mi
1:59 PM47 °FLight rain. Fog.22 mph83%29.72 "Hg5 mi
12:59 PM47 °FRain. Fog.22 mph83%29.80 "Hg2 mi
11:59 AM48 °FHeavy rain. Fog.28 mph83%29.82 "Hg1 mi
10:59 AM48 °FHeavy rain. Fog.30 mph83%29.86 "Hg2 mi
9:59 AM49 °FLight rain. Fog.31 mph84%29.88 "Hg2 mi
8:59 AM49 °FRain. Fog.28 mph86%29.90 "Hg1 mi
Weather by CustomWeather, © 2014

See weather overviewHow to use our weather pages